Time,TemperatureF,DewpointF,PressureIn,WindDirection,WindDirectionDegrees,WindSpeedMPH,WindSpeedGustMPH,Humidity,HourlyPrecipIn,Conditions,Clouds,dailyrainin,SoftwareType,DateUTC
2013-12-04 00:01:00,45.1,45.0,29.57,SE,132,0.0,1.0,99,0.00,,,0.00,weatherlink.com 1.10,2013-12-04 06:01:00,
2013-12-04 00:16:00,45.1,45.0,29.57,SE,132,0.0,1.0,99,0.00,,,0.00,weatherlink.com 1.10,2013-12-04 06:16:00,
2013-12-04 00:31:00,44.7,44.0,29.56,SE,132,0.0,0.0,98,0.00,,,0.00,weatherlink.com 1.10,2013-12-04 06:31:00,
2013-12-04 00:46:00,44.5,44.0,29.56,SE,132,0.0,0.0,98,0.00,,,0.00,weatherlink.com 1.10,2013-12-04 06:46:00,
2013-12-04 01:01:00,44.7,44.0,29.55,SSW,195,0.0,2.0,98,0.00,,,0.00,weatherlink.com 1.10,2013-12-04 07:01:00,
2013-12-04 01:16:00,45.4,45.0,29.55,SSW,195,0.0,0.0,99,0.00,,,0.00,weatherlink.com 1.10,2013-12-04 07:16:00,
2013-12-04 01:31:00,45.9,46.0,29.55,SSW,195,0.0,0.0,99,0.00,,,0.00,weatherlink.com 1.10,2013-12-04 07:31:00,
2013-12-04 01:46:00,46.0,46.0,29.55,SSW,195,0.0,0.0,99,0.00,,,0.00,weatherlink.com 1.10,2013-12-04 07:46:00,
2013-12-04 02:01:00,46.0,46.0,29.55,SSW,195,0.0,0.0,99,0.00,,,0.00,weatherlink.com 1.10,2013-12-04 08:01:00,
2013-12-04 02:16:00,46.1,46.0,29.55,SSW,195,0.0,0.0,98,0.00,,,0.00,weatherlink.com 1.10,2013-12-04 08:16:00,
2013-12-04 02:31:00,46.3,46.0,29.55,SE,128,0.0,1.0,99,0.00,,,0.00,weatherlink.com 1.10,2013-12-04 08:31:00,
2013-12-04 02:46:00,46.6,46.0,29.55,SSE,159,0.0,2.0,99,0.00,,,0.00,weatherlink.com 1.10,2013-12-04 08:46:00,
2013-12-04 03:01:00,46.8,47.0,29.54,SW,231,1.0,3.0,99,0.00,,,0.00,weatherlink.com 1.10,2013-12-04 09:01:00,
2013-12-04 03:16:00,46.8,47.0,29.55,SSE,154,2.0,2.0,99,0.00,,,0.00,weatherlink.com 1.10,2013-12-04 09:16:00,
2013-12-04 03:31:00,46.7,47.0,29.54,ESE,120,1.0,1.0,99,0.00,,,0.00,weatherlink.com 1.10,2013-12-04 09:31:00,
2013-12-04 03:46:00,46.5,46.0,29.54,SSW,192,0.0,1.0,99,0.00,,,0.00,weatherlink.com 1.10,2013-12-04 09:46:00,
2013-12-04 04:01:00,46.5,46.0,29.54,South,191,0.0,1.0,99,0.00,,,0.00,weatherlink.com 1.10,2013-12-04 10:01:00,
2013-12-04 04:16:00,44.6,44.0,29.55,WSW,256,0.0,2.0,97,0.00,,,0.00,weatherlink.com 1.10,2013-12-04 10:16:00,
2013-12-04 04:31:00,43.6,43.0,29.54,West,269,0.0,3.0,98,0.00,,,0.00,weatherlink.com 1.10,2013-12-04 10:31:00,
2013-12-04 04:46:00,43.3,43.0,29.54,NNE,25,0.0,0.0,98,0.00,,,0.00,weatherlink.com 1.10,2013-12-04 10:46:00,
2013-12-04 05:01:00,43.1,43.0,29.53,WNW,301,0.0,0.0,98,0.00,,,0.00,weatherlink.com 1.10,2013-12-04 11:01:00,
2013-12-04 05:16:00,42.9,42.0,29.54,WNW,301,0.0,0.0,98,0.00,,,0.00,weatherlink.com 1.10,2013-12-04 11:16:00,
2013-12-04 05:31:00,42.8,42.0,29.52,WNW,301,0.0,0.0,98,0.00,,,0.00,weatherlink.com 1.10,2013-12-04 11:31:00,
2013-12-04 05:46:00,42.8,42.0,29.51,North,354,0.0,0.0,98,0.00,,,0.00,weatherlink.com 1.10,2013-12-04 11:46:00,
2013-12-04 06:01:00,42.9,42.0,29.49,North,356,0.0,0.0,98,0.00,,,0.00,weatherlink.com 1.10,2013-12-04 12:01:00,
2013-12-04 06:17:00,43.7,44.0,29.49,NE,40,0.0,2.0,99,0.00,,,0.00,weatherlink.com 1.10,2013-12-04 12:17:00,
2013-12-04 06:32:00,44.2,44.0,29.50,NE,40,0.0,0.0,99,0.00,,,0.00,weatherlink.com 1.10,2013-12-04 12:32:00,
2013-12-04 06:47:00,44.4,44.0,29.52,WSW,255,1.0,2.0,98,0.00,,,0.00,weatherlink.com 1.10,2013-12-04 12:47:00,
2013-12-04 07:02:00,43.7,43.0,29.54,West,270,2.0,5.0,98,0.00,,,0.00,weatherlink.com 1.10,2013-12-04 13:02:00,
2013-12-04 07:17:00,42.7,42.0,29.55,West,268,3.0,8.0,97,0.00,,,0.00,weatherlink.com 1.10,2013-12-04 13:17:00,
2013-12-04 07:32:00,41.1,40.0,29.57,WSW,257,4.0,8.0,97,0.00,,,0.00,weatherlink.com 1.10,2013-12-04 13:32:00,
2013-12-04 07:47:00,40.4,40.0,29.57,WSW,248,3.0,10.0,97,0.01,,,0.01,weatherlink.com 1.10,2013-12-04 13:47:00,
2013-12-04 08:02:00,40.0,40.0,29.56,WNW,303,0.0,4.0,98,0.01,,,0.01,weatherlink.com 1.10,2013-12-04 14:02:00,
2013-12-04 08:17:00,39.7,39.0,29.56,NNW,347,1.0,9.0,98,0.01,,,0.01,weatherlink.com 1.10,2013-12-04 14:17:00,
2013-12-04 08:32:00,39.3,39.0,29.56,SSW,200,1.0,5.0,98,0.01,,,0.01,weatherlink.com 1.10,2013-12-04 14:32:00,
2013-12-04 08:47:00,39.1,39.0,29.57,NNW,340,0.0,3.0,98,0.00,,,0.01,weatherlink.com 1.10,2013-12-04 14:47:00,
2013-12-04 09:02:00,39.1,39.0,29.59,NNW,335,1.0,5.0,98,0.00,,,0.01,weatherlink.com 1.10,2013-12-04 15:02:00,
2013-12-04 09:17:00,38.9,38.0,29.59,NW,311,2.0,8.0,98,0.00,,,0.01,weatherlink.com 1.10,2013-12-04 15:17:00,
2013-12-04 09:32:00,38.5,38.0,29.59,NW,315,6.0,6.0,98,0.00,,,0.01,weatherlink.com 1.10,2013-12-04 15:32:00,
2013-12-04 09:47:00,38.5,38.0,29.60,WSW,255,3.0,9.0,98,0.00,,,0.01,weatherlink.com 1.10,2013-12-04 15:47:00,
2013-12-04 10:02:00,38.2,38.0,29.61,WNW,284,2.0,8.0,98,0.00,,,0.01,weatherlink.com 1.10,2013-12-04 16:02:00,
2013-12-04 10:17:00,37.7,37.0,29.61,NW,314,4.0,9.0,97,0.00,,,0.01,weatherlink.com 1.10,2013-12-04 16:17:00,
2013-12-04 10:32:00,37.4,37.0,29.62,West,264,2.0,7.0,97,0.00,,,0.01,weatherlink.com 1.10,2013-12-04 16:32:00,
2013-12-04 10:47:00,35.7,35.0,29.62,WNW,297,1.0,8.0,96,0.00,,,0.01,weatherlink.com 1.10,2013-12-04 16:47:00,
2013-12-04 11:02:00,35.2,35.0,29.61,WSW,243,6.0,10.0,97,0.00,,,0.01,weatherlink.com 1.10,2013-12-04 17:02:00,
2013-12-04 11:17:00,35.8,35.0,29.61,NNW,343,3.0,6.0,97,0.00,,,0.01,weatherlink.com 1.10,2013-12-04 17:17:00,
2013-12-04 11:32:00,36.0,35.0,29.62,North,6,0.0,7.0,96,0.00,,,0.01,weatherlink.com 1.10,2013-12-04 17:32:00,
2013-12-04 11:47:00,35.7,34.0,29.62,SW,228,9.0,9.0,95,0.00,,,0.01,weatherlink.com 1.10,2013-12-04 17:47:00,
2013-12-04 12:02:00,35.2,34.0,29.62,NW,316,2.0,10.0,95,0.00,,,0.01,weatherlink.com 1.10,2013-12-04 18:02:00,
2013-12-04 12:17:00,34.8,33.0,29.63,NE,36,2.0,7.0,94,0.00,,,0.01,weatherlink.com 1.10,2013-12-04 18:17:00,
2013-12-04 12:32:00,33.9,32.0,29.64,NE,34,2.0,9.0,93,0.00,,,0.01,weatherlink.com 1.10,2013-12-04 18:32:00,
2013-12-04 12:48:00,33.2,31.0,29.66,West,263,5.0,10.0,93,0.00,,,0.01,weatherlink.com 1.10,2013-12-04 18:48:00,
2013-12-04 13:03:00,32.7,31.0,29.67,West,268,1.0,8.0,93,0.00,,,0.01,weatherlink.com 1.10,2013-12-04 19:03:00,
2013-12-04 13:18:00,32.4,30.0,29.67,SSW,205,1.0,9.0,92,0.00,,,0.01,weatherlink.com 1.10,2013-12-04 19:18:00,
2013-12-04 13:33:00,32.2,30.0,29.67,West,269,1.0,10.0,92,0.00,,,0.01,weatherlink.com 1.10,2013-12-04 19:33:00,
2013-12-04 13:48:00,32.3,30.0,29.68,SSW,201,2.0,7.0,92,0.00,,,0.01,weatherlink.com 1.10,2013-12-04 19:48:00,
2013-12-04 14:03:00,32.1,30.0,29.69,WSW,256,3.0,8.0,91,0.00,,,0.01,weatherlink.com 1.10,2013-12-04 20:03:00,
2013-12-04 14:18:00,31.7,29.0,29.70,SW,222,4.0,8.0,91,0.00,,,0.01,weatherlink.com 1.10,2013-12-04 20:18:00,
2013-12-04 14:33:00,31.4,29.0,29.71,West,259,2.0,8.0,91,0.00,,,0.01,weatherlink.com 1.10,2013-12-04 20:33:00,
2013-12-04 14:48:00,31.2,29.0,29.72,WSW,239,2.0,7.0,91,0.00,,,0.01,weatherlink.com 1.10,2013-12-04 20:48:00,
2013-12-04 15:03:00,30.8,28.0,29.73,West,259,3.0,8.0,90,0.00,,,0.01,weatherlink.com 1.10,2013-12-04 21:03:00,
2013-12-04 15:18:00,30.6,28.0,29.74,NNW,345,3.0,6.0,90,0.00,,,0.01,weatherlink.com 1.10,2013-12-04 21:18:00,
2013-12-04 15:33:00,30.3,28.0,29.76,West,276,1.0,7.0,90,0.00,,,0.01,weatherlink.com 1.10,2013-12-04 21:33:00,
2013-12-04 15:48:00,30.0,27.0,29.76,SSW,210,3.0,10.0,89,0.00,,,0.01,weatherlink.com 1.10,2013-12-04 21:48:00,
2013-12-04 16:03:00,29.9,27.0,29.77,SW,217,1.0,7.0,89,0.00,,,0.01,weatherlink.com 1.10,2013-12-04 22:03:00,
2013-12-04 16:18:00,29.3,27.0,29.78,WSW,240,4.0,9.0,89,0.00,,,0.01,weatherlink.com 1.10,2013-12-04 22:18:00,
2013-12-04 16:33:00,29.1,26.0,29.80,NNE,12,0.0,7.0,89,0.00,,,0.01,weatherlink.com 1.10,2013-12-04 22:33:00,
2013-12-04 16:48:00,28.8,26.0,29.81,South,185,2.0,8.0,88,0.00,,,0.01,weatherlink.com 1.10,2013-12-04 22:48:00,
2013-12-04 17:03:00,28.3,25.0,29.81,West,278,2.0,8.0,87,0.00,,,0.01,weatherlink.com 1.10,2013-12-04 23:03:00,
2013-12-04 17:18:00,27.8,24.0,29.83,NW,323,1.0,8.0,86,0.00,,,0.01,weatherlink.com 1.10,2013-12-04 23:18:00,
2013-12-04 17:34:00,27.5,24.0,29.84,West,262,8.0,9.0,86,0.00,,,0.01,weatherlink.com 1.10,2013-12-04 23:34:00,
2013-12-04 17:49:00,27.4,24.0,29.86,West,266,3.0,9.0,86,0.00,,,0.01,weatherlink.com 1.10,2013-12-04 23:49:00,
2013-12-04 18:04:00,27.3,23.0,29.87,West,271,6.0,10.0,85,0.00,,,0.01,weatherlink.com 1.10,2013-12-05 00:04:00,
2013-12-04 18:19:00,27.2,23.0,29.88,West,259,2.0,6.0,85,0.00,,,0.01,weatherlink.com 1.10,2013-12-05 00:19:00,
2013-12-04 18:34:00,27.0,23.0,29.89,NW,308,3.0,8.0,85,0.00,,,0.01,weatherlink.com 1.10,2013-12-05 00:34:00,
2013-12-04 18:49:00,26.6,23.0,29.90,SW,232,1.0,7.0,85,0.00,,,0.01,weatherlink.com 1.10,2013-12-05 00:49:00,
2013-12-04 19:04:00,26.3,22.0,29.90,West,259,4.0,10.0,84,0.00,,,0.01,weatherlink.com 1.10,2013-12-05 01:04:00,
2013-12-04 19:19:00,26.1,22.0,29.91,WSW,257,4.0,8.0,83,0.00,,,0.01,weatherlink.com 1.10,2013-12-05 01:19:00,
2013-12-04 19:34:00,26.0,22.0,29.91,SSE,165,6.0,7.0,84,0.00,,,0.01,weatherlink.com 1.10,2013-12-05 01:34:00,
2013-12-04 19:49:00,25.9,21.0,29.92,NNE,15,2.0,8.0,83,0.00,,,0.01,weatherlink.com 1.10,2013-12-05 01:49:00,
2013-12-04 20:04:00,25.6,21.0,29.93,West,267,2.0,7.0,83,0.00,,,0.01,weatherlink.com 1.10,2013-12-05 02:04:00,
2013-12-04 20:19:00,25.4,21.0,29.94,WSW,238,3.0,10.0,83,0.00,,,0.01,weatherlink.com 1.10,2013-12-05 02:19:00,
2013-12-04 20:34:00,25.1,20.0,29.94,WSW,256,4.0,7.0,82,0.00,,,0.01,weatherlink.com 1.10,2013-12-05 02:34:00,
2013-12-04 20:49:00,24.9,20.0,29.94,WSW,256,4.0,8.0,82,0.00,,,0.01,weatherlink.com 1.10,2013-12-05 02:49:00,
2013-12-04 21:04:00,24.7,20.0,29.96,North,10,2.0,8.0,82,0.00,,,0.01,weatherlink.com 1.10,2013-12-05 03:04:00,
2013-12-04 21:19:00,24.6,20.0,29.96,NW,309,2.0,9.0,81,0.00,,,0.01,weatherlink.com 1.10,2013-12-05 03:19:00,
2013-12-04 21:34:00,24.3,19.0,29.97,NNW,333,3.0,8.0,79,0.00,,,0.01,weatherlink.com 1.10,2013-12-05 03:34:00,
2013-12-04 21:49:00,23.9,18.0,29.97,WNW,302,2.0,6.0,78,0.00,,,0.01,weatherlink.com 1.10,2013-12-05 03:49:00,
2013-12-04 22:04:00,23.6,18.0,29.98,NW,313,0.0,8.0,78,0.00,,,0.01,weatherlink.com 1.10,2013-12-05 04:04:00,
2013-12-04 22:19:00,23.6,17.0,29.99,West,270,3.0,10.0,77,0.00,,,0.01,weatherlink.com 1.10,2013-12-05 04:19:00,
2013-12-04 22:34:00,23.6,17.0,30.00,SW,226,2.0,7.0,77,0.00,,,0.01,weatherlink.com 1.10,2013-12-05 04:34:00,
2013-12-04 22:49:00,23.6,17.0,30.00,West,274,8.0,8.0,77,0.00,,,0.01,weatherlink.com 1.10,2013-12-05 04:49:00,
2013-12-04 23:04:00,23.6,17.0,30.03,SW,221,2.0,8.0,77,0.00,,,0.01,weatherlink.com 1.10,2013-12-05 05:04:00,
2013-12-04 23:19:00,23.6,17.0,30.03,North,352,1.0,6.0,75,0.00,,,0.01,weatherlink.com 1.10,2013-12-05 05:19:00,
2013-12-04 23:35:00,23.5,16.0,30.03,WNW,285,2.0,9.0,74,0.00,,,0.01,weatherlink.com 1.10,2013-12-05 05:35:00,
2013-12-04 23:50:00,23.4,15.0,30.05,NNW,345,6.0,13.0,71,0.00,,,0.01,weatherlink.com 1.10,2013-12-05 05:50:00,